Location: Austin
(30.3000°N, 97.7500°W)
Time: 06:20:07
(UTC-06:00)

Cosmos 1697 Rocket - Pass Details

Date: 05 February 2026
Orbit: 830 x 844 km, 71.0° (Epoch: 14 February)

Event Time Altitude Azimuth Distance (km) Brightness Sun altitude
Rises 05:50:24 0° 193° (SSW) 3,362 5.8 -19.5°
Reaches altitude 10° 05:52:50 10° 192° (SSW) 2,434 5.1 -19.0°
Maximum altitude 05:58:24 74° 107° (ESE) 870 2.9 -17.8°
Drops below altitude 10° 06:04:01 10° 24° (NNE) 2,456 5.3 -16.6°
Sets 06:06:28 0° 22° (NNE) 3,395 6.0 -16.1°
